TimeCDT,TemperatureF,Dew PointF,Humidity,Sea Level PressureIn,VisibilityMPH,Wind Direction,Wind SpeedMPH,Gust SpeedMPH,PrecipitationIn,Events,Conditions,WindDirDegrees,DateUTC
2:15 AM,55.4,55.4,100,30.15,5.0,Calm,Calm,-,N/A,,Clear,0,2014-05-19 07:15:00
2:35 AM,55.4,55.4,100,30.15,1.2,Calm,Calm,-,N/A,,Clear,0,2014-05-19 07:35:00
2:55 AM,55.4,55.4,100,30.15,1.8,Calm,Calm,-,N/A,,Clear,0,2014-05-19 07:55:00
3:15 AM,55.4,55.4,100,30.15,5.0,Calm,Calm,-,N/A,,Clear,0,2014-05-19 08:15:00
3:35 AM,55.4,55.4,100,30.15,3.0,Calm,Calm,-,N/A,,Clear,0,2014-05-19 08:35:00
3:55 AM,55.4,55.4,100,30.15,4.0,Calm,Calm,-,N/A,,Partly Cloudy,0,2014-05-19 08:55:00
4:15 AM,55.4,55.4,100,30.15,5.0,Calm,Calm,-,N/A,,Partly Cloudy,0,2014-05-19 09:15:00
4:35 AM,55.4,55.4,100,30.15,5.0,Calm,Calm,-,N/A,,Mostly Cloudy,0,2014-05-19 09:35:00
4:55 AM,57.2,57.2,100,30.15,10.0,Calm,Calm,-,N/A,,Overcast,0,2014-05-19 09:55:00
9:50 AM,69.8,62.6,78,30.18,10.0,SE,4.6,-,N/A,,Scattered Clouds,130,2014-05-19 14:50:00
10:50 AM,73.4,64.4,73,30.17,10.0,SSE,8.1,-,N/A,,Scattered Clouds,160,2014-05-19 15:50:00
11:50 AM,77.0,64.4,65,30.16,10.0,Variable,6.9,-,N/A,,Scattered Clouds,0,2014-05-19 16:50:00
12:50 PM,80.6,66.2,61,30.14,10.0,SSE,8.1,-,N/A,,Scattered Clouds,150,2014-05-19 17:50:00
1:50 PM,80.6,64.4,58,30.13,10.0,SSE,8.1,-,N/A,,Mostly Cloudy,160,2014-05-19 18:50:00
2:50 PM,82.4,64.4,54,30.11,10.0,SSE,8.1,-,N/A,,Scattered Clouds,160,2014-05-19 19:50:00
3:50 PM,80.6,64.4,58,30.08,10.0,SSE,9.2,-,N/A,,Scattered Clouds,160,2014-05-19 20:50:00
4:50 PM,82.4,62.6,51,30.06,10.0,SSE,9.2,-,N/A,,Scattered Clouds,160,2014-05-19 21:50:00
5:50 PM,82.4,62.6,51,30.05,10.0,SSE,6.9,-,N/A,,Scattered Clouds,160,2014-05-19 22:50:00
6:55 PM,80.6,62.6,54,30.05,10.0,SSE,5.8,-,N/A,,Scattered Clouds,150,2014-05-19 23:55:00
7:50 PM,78.8,62.6,57,30.03,10.0,SSE,6.9,-,N/A,,Scattered Clouds,150,2014-05-20 00:50:00
8:50 PM,80.6,62.6,54,30.03,10.0,SE,6.9,-,N/A,,Scattered Clouds,140,2014-05-20 01:50:00
9:50 PM,73.4,62.6,69,30.03,10.0,SSE,5.8,-,N/A,,Scattered Clouds,150,2014-05-20 02:50:00
10:50 PM,73.4,60.8,65,30.04,10.0,SSE,6.9,-,N/A,,Scattered Clouds,160,2014-05-20 03:50:00
11:50 PM,73.4,59.0,61,30.04,10.0,SSE,5.8,-,N/A,,Scattered Clouds,160,2014-05-20 04:50:00